Location: Rockford
(40.2514°N, 96.6004°W)
Time: 13:02:27
(UTC+00:00)

LightSail 2 - Pass Details

Date: 27 September 2019
Orbit: 707 x 722 km, 24.0° (Epoch: 16 October)

Event Time Altitude Azimuth Distance (km) Brightness Sun altitude
Exits shadow 10:53:21 11° 201° (SSW) 2,111 7.3 -17.0°
Maximum altitude 10:54:43 12° 185° (S) 2,041 7.3 -16.7°
Drops below altitude 10° 10:56:30 10° 164° (SSE) 2,160 7.7 -16.4°
Sets 11:00:34 0° 133° (SE) 3,078 9.0 -15.6°
